OPS 4682 DEB, 38407

Orbit data source: Space-Track

OPS 4682 DEB, 38407 is space debris in LEO originally from a launch on Sat, 03 Apr 1965 UTC launched from the Air Force Western Test Range (AFWTR). Debris objects in space refer to the collection of defunct objects orbiting the Earth. Examples of debris include non-operational satellites, rocket bodies, and fragments generated from explosions, collisions, or faulty payload assembly.

Loading next visibility...
Identifier
38407, 1965-027DL
Orbit
LEO
Country
Flag of USUS
Related business
Manufacturer
Unknown
Mission
Spacecraft
Bus & Motor
Unknown
Mass
Unknown
Launch date (UTC)
1965-04-03 (61 years ago)
Launch vehicle
Unknown
Launch site
Air Force Western Test Range (AFWTR)
Object type
Payload
Rocket body
Debris
Shape & HBR
Unknown shape, 0.1 m
Radar Cross Section
Medium (>0.1 m² and <1 m²)

Expand to show TLE details & history
Last TLE update: 2 weeks ago

TLE from 2 weeks ago
0 OPS 4682 DEB
1 38407U 65027DL  26250.59589923 -.00000152  00000-0 -55153-3 0  9999
2 38407  90.2480   9.2604 0027525 274.1532  85.6442 12.96977766311951
Epoch: 2026-09-07T14:18Z
TLE epoch observation values (Epoch: 2026-09-07T14:18:05.693Z)
Latitude
-0.00009°
Longitude
168.06228°
Altitude
1,275.288 km
Speed
7.219 km/s
True Right ascension
00h 37m 02s
True Declination
0° 00' 00"
Sunlit
Object was in full shadow at epoch
Visualization orbit readout
Latitude
Unknown
Longitude
Unknown
Altitude
Unknown
Speed
Unknown
Apparent Right ascension
Unknown
Apparent Declination
Unknown
Sunlit
N/A
Visualization observer readout
Local Sidereal Time
02:03:46
Azimuth
Unknown
Elevation
Unknown
Doppler factor
Unknown
Orbital elements
Apogee altitude
1,292.137 km
Perigee altitude
1,250.028 km
Semi-major axis
7,649.219 km
Eccentricity
0.00275
Inclination
90.248°
RAAN
9.2604°
Arg. of periapsis
274.1532°
True anomaly
85.95878°
Mean anomaly
85.6442°
Eccentric anomaly
85.80148°
Mean motion
3.24427 °/min
Orbital period
110.96 mins
BSTAR
-0.00055153
Loading maneuver chart data...
Computing Atmospheric mass density...
Loading historical data...
Loading historical data...
Loading historical data...
Loading historical data...
Loading historical data...
Loading historical data...
Loading historical data...

Documentation

Showing up to 5 results
|